GFSWCAN_sfc_thetae_231.txt.gz
Theta_e
315 316 316 316 316 315 314 313 312 312 313 313 314 314 315 314 313 305 300 303 301 294 297 299 299 293 291 290 286 293 293 293 294 290 286 287 289 290 289 289 286 286 284 289 287 287 286 307 309 300 307 314 313 314
314 315 316 316 315 315 314 313 312 312 312 313 313 314 314 314 313 307 299 304 305 298 298 302 303 302 300 299 293 294 295 294 295 291 291 288 288 290 289 284 291 289 293 294 297 297 304 302 304 311 311 310 311 315
314 314 315 315 315 315 315 314 314 313 313 313 312 314 314 313 312 308 299 300 301 296 297 297 297 303 301 299 299 296 299 302 300 302 295 292 287 292 289 288 290 296 300 296 296 299 299 300 302 304 305 312 315 314
315 314 314 315 315 315 315 315 315 314 313 312 312 312 313 312 311 309 300 301 300 296 291 295 304 300 303 301 300 300 301 304 302 300 296 293 289 295 288 291 289 293 296 295 293 297 302 304 300 302 303 305 305 306
314 314 314 314 314 315 315 314 314 314 314 313 312 312 312 311 310 306 301 302 301 297 291 293 299 301 301 300 299 298 298 296 295 293 293 291 293 294 293 290 289 295 292 292 292 296 294 297 300 302 301 303 304 303
314 314 314 314 314 314 315 314 314 313 313 312 311 311 311 310 309 303 300 303 303 301 295 290 298 298 301 300 299 299 297 293 293 291 290 292 294 291 288 286 291 294 295 296 295 298 298 299 300 300 299 300 303 305
314 314 314 314 314 314 314 314 313 312 312 311 311 310 310 309 303 300 300 303 305 302 296 292 292 299 300 297 297 297 296 295 294 290 292 290 293 293 288 285 291 294 295 296 297 296 297 297 295 298 298 300 304 307
314 314 314 314 314 314 314 313 313 311 311 310 310 309 309 309 306 302 305 307 305 299 298 290 292 294 299 294 292 295 293 294 294 291 292 290 292 290 286 289 292 295 295 295 295 296 295 295 295 296 299 300 299 302
313 313 313 314 314 313 313 313 313 311 309 309 310 310 305 302 300 304 313 309 304 300 295 293 288 287 297 293 293 293 293 289 293 290 291 290 287 283 290 291 292 293 292 293 295 295 295 294 294 295 297 298 298 299
313 313 313 313 313 313 313 313 312 309 308 309 306 303 302 305 315 312 305 298 297 297 296 292 297 292 295 291 290 290 290 287 286 289 292 285 286 291 293 294 294 294 294 294 290 289 291 290 292 294 295 297 299 300
312 312 313 313 313 313 313 313 312 308 308 307 305 305 308 312 307 303 298 298 296 296 297 297 297 294 297 291 289 290 288 285 280 286 286 285 283 291 294 294 295 295 296 295 294 293 293 292 292 292 294 296 298 299
312 312 312 312 312 313 313 312 311 308 310 307 307 308 306 305 301 298 296 298 295 295 300 297 298 297 296 295 292 290 288 289 284 291 287 283 288 293 295 296 296 296 297 297 297 295 294 294 294 294 293 294 295 298
311 311 312 312 312 312 312 312 311 309 309 309 305 303 302 302 292 295 295 296 295 299 300 299 296 298 297 296 292 291 289 287 292 287 286 288 291 295 296 297 297 297 298 298 297 297 296 294 295 294 293 294 294 294
310 311 311 311 311 312 312 311 311 309 306 303 302 292 298 297 298 298 299 300 303 303 304 304 299 299 298 294 293 290 292 292 287 284 286 289 292 295 296 298 298 298 298 297 297 297 296 295 293 294 294 293 293 292
310 310 310 310 311 311 312 311 310 309 306 301 301 294 299 302 305 305 307 307 309 310 306 303 302 300 299 296 295 293 289 286 286 284 288 291 293 293 293 297 298 298 298 297 297 297 296 296 294 293 293 293 293 293
310 310 310 311 312 311 310 310 309 308 306 302 301 300 304 302 301 304 304 304 310 309 307 304 302 297 296 296 293 290 288 284 287 290 293 293 293 293 293 294 297 298 298 298 298 298 297 296 295 294 293 293 293 293
310 310 312 311 311 309 310 309 307 303 302 302 300 304 303 303 300 302 304 307 311 307 301 301 298 297 297 292 291 292 289 292 292 293 294 295 295 294 293 293 294 295 295 295 296 296 297 297 294 293 293 294 293 294
309 313 311 309 309 309 308 308 306 304 300 302 299 302 305 308 302 303 305 308 308 306 305 302 304 296 295 291 290 293 295 295 295 295 295 295 294 294 296 294 295 295 295 294 294 294 295 295 294 295 295 295 293 294
310 311 310 310 310 308 305 305 305 300 302 304 305 306 306 305 305 307 306 312 310 313 309 306 298 295 295 297 297 297 296 295 295 295 295 295 295 296 297 296 296 295 295 295 294 294 293 294 296 296 297 294 294 295
309 309 310 310 311 307 305 305 308 302 301 303 307 304 303 302 305 307 310 310 310 309 306 304 298 298 298 298 299 299 297 297 297 296 295 297 298 297 298 297 296 297 295 294 294 295 294 293 293 296 297 296 295 297
308 310 310 310 307 307 306 306 305 306 304 305 304 304 303 304 304 304 304 309 307 303 300 302 303 303 303 303 303 298 298 299 298 298 298 297 299 299 298 298 297 296 295 295 295 296 296 294 293 294 295 295 296 297
310 311 308 308 305 306 304 306 305 306 305 302 302 304 303 302 302 303 306 303 304 305 303 304 305 304 302 299 299 299 300 300 299 299 299 299 299 298 299 299 297 297 296 296 295 295 293 292 293 292 292 291 292 294
311 309 308 306 304 300 298 309 305 306 302 304 305 303 304 302 304 308 303 305 305 307 306 305 304 304 300 301 301 299 297 299 298 299 300 300 300 299 299 300 299 298 296 294 291 291 292 292 291 291 291 292 290 291
310 308 305 304 302 297 306 304 306 304 305 304 303 302 304 303 306 300 298 302 305 304 305 306 304 300 299 298 297 298 298 297 297 297 297 296 296 297 299 302 299 299 298 293 291 292 292 291 291 290 291 291 291 291
298 299 299 292 305 302 301 302 302 302 301 303 302 302 304 306 301 301 300 301 303 303 305 303 301 300 298 297 298 299 299 299 298 299 299 297 296 293 293 294 294 294 293 293 293 293 293 293 293 293 292 292 291 291
292 301 296 301 302 301 302 300 302 302 303 303 305 308 308 304 303 299 300 304 305 305 306 303 301 299 298 298 298 299 301 301 300 300 302 301 298 296 294 293 293 292 293 293 293 294 295 295 294 293 293 293 292 292
293 299 304 305 303 305 303 305 304 303 302 302 304 305 303 301 300 302 306 308 309 309 310 308 305 303 302 301 301 303 302 304 305 304 302 301 298 297 296 294 293 294 293 294 294 295 295 294 293 293 293 293 293 294
301 302 300 300 302 304 302 302 301 302 304 307 306 302 303 303 301 306 310 311 313 312 311 310 310 308 305 305 306 305 303 298 295 294 294 294 292 292 292 293 293 292 293 293 294 294 294 293 293 293 293 293 292 293
302 303 303 302 303 303 303 301 301 304 310 309 305 304 307 309 312 311 312 312 312 311 309 308 307 306 306 306 304 304 300 296 294 292 292 291 290 292 291 291 292 292 293 293 293 293 293 294 294 293 294 293 292 292
301 302 301 304 303 301 304 305 304 310 313 312 312 311 310 311 314 317 315 313 311 310 311 312 310 308 306 305 304 300 298 298 298 295 293 293 293 294 292 291 291 291 290 291 291 290 292 292 292 292 292 293 293 295
306 306 304 305 305 307 310 311 312 310 312 312 314 310 308 312 314 315 315 316 315 311 310 310 310 311 308 306 306 302 300 300 299 300 298 297 296 295 293 292 292 292 291 291 290 291 291 290 291 292 293 294 296 295
305 303 304 302 303 310 312 310 309 308 308 308 307 309 310 308 306 311 317 315 312 310 309 310 310 310 311 312 312 310 300 307 303 302 299 296 295 295 294 293 292 292 293 293 293 292 292 293 293 293 293 295 296 297
305 308 308 306 307 307 309 308 306 305 306 306 307 309 308 307 307 311 314 315 312 310 309 313 310 309 312 311 305 303 301 303 298 293 294 294 293 293 293 293 294 295 294 293 294 294 294 295 295 295 295 296 296 296

GFSWCAN_sfc_thetae_234.txt.gz
Theta_e
315 315 315 316 317 316 315 315 314 313 313 313 313 314 314 314 313 303 299 302 301 293 295 299 298 292 291 289 289 290 292 292 292 290 287 286 289 290 285 288 285 285 286 289 286 286 286 300 306 300 310 315 315 316
314 315 315 315 316 316 315 315 315 314 314 314 313 313 313 313 313 306 298 303 304 298 297 299 302 302 299 299 293 296 294 293 293 292 290 289 289 292 287 283 290 289 292 294 294 294 301 301 300 303 310 311 313 315
314 315 315 314 315 315 315 315 315 315 315 314 313 313 313 313 312 308 299 300 301 295 296 296 297 299 300 301 299 294 298 300 299 302 294 292 288 291 284 288 291 295 301 297 294 298 298 299 302 302 304 304 305 307
314 315 315 314 314 314 315 315 315 315 314 314 313 312 312 312 311 309 299 300 300 296 290 294 302 300 302 299 299 298 301 302 302 301 296 291 286 292 287 292 291 296 298 296 293 297 300 300 300 301 302 304 304 306
314 314 314 314 314 314 315 315 315 314 313 314 312 312 311 311 310 305 300 302 301 297 290 291 297 300 299 299 299 298 297 297 295 294 294 291 296 295 294 293 294 297 295 292 290 296 295 296 300 299 298 299 300 302
313 313 313 314 314 314 315 314 314 314 313 313 312 311 311 310 309 302 299 302 303 301 294 289 296 297 299 299 298 295 295 292 293 292 291 293 296 293 288 288 294 296 298 296 294 297 297 299 299 298 297 299 301 304
313 313 314 314 314 314 315 314 314 313 312 311 311 310 310 309 302 299 299 302 304 302 296 291 292 297 298 297 296 295 294 294 292 289 290 290 292 292 289 285 292 294 295 296 295 296 295 295 294 297 298 300 301 303
313 313 313 314 314 314 314 313 313 313 312 311 310 309 309 309 307 301 304 307 305 298 297 289 291 294 297 293 292 293 292 292 292 290 290 289 291 289 286 289 292 294 295 294 294 294 294 295 296 296 298 299 299 299
312 313 313 313 313 313 313 313 313 313 310 309 309 310 306 303 301 305 311 309 305 300 293 292 286 287 297 292 291 291 291 289 291 289 290 289 286 283 288 290 292 294 293 293 294 294 294 293 293 294 295 296 296 297
312 312 312 312 312 313 313 313 313 312 309 309 306 304 302 306 313 312 304 298 296 296 294 290 295 291 294 290 289 289 289 286 285 288 290 284 285 290 292 293 294 294 294 294 290 289 291 291 292 293 294 295 296 297
312 312 312 312 312 312 312 312 312 309 309 308 306 305 308 313 307 302 298 297 295 295 296 295 295 294 296 290 289 290 287 285 280 285 286 284 282 290 293 293 294 294 295 294 293 293 293 292 292 292 294 295 297 297
311 311 311 312 312 312 312 312 311 309 310 308 307 308 307 305 301 297 296 297 294 295 299 298 297 298 295 294 291 290 288 289 284 290 286 283 288 291 294 295 294 294 296 295 296 295 294 295 294 294 294 294 295 295
311 311 311 311 312 312 312 312 311 310 309 309 305 302 302 301 292 294 293 297 296 299 301 300 296 297 296 296 292 291 288 287 291 287 286 287 289 293 294 295 295 296 297 297 297 297 296 295 295 294 294 294 294 294
310 310 310 310 311 311 311 311 311 309 307 303 301 291 298 295 296 298 299 300 303 304 305 304 298 297 295 294 294 291 292 292 287 284 285 289 291 294 295 297 297 296 297 297 297 297 296 295 294 295 295 294 294 294
310 310 310 310 311 311 311 311 310 309 306 301 301 293 299 302 303 304 305 302 308 309 307 304 302 299 297 296 295 293 289 287 287 285 288 291 292 295 295 297 297 297 298 297 297 296 297 296 294 294 294 294 294 294
310 310 310 311 311 311 310 310 310 308 306 302 301 300 304 302 300 302 302 304 310 309 306 303 299 298 297 298 291 290 287 284 288 289 291 292 293 294 294 296 299 299 298 298 298 298 297 296 296 295 295 294 294 295
309 309 312 311 311 309 310 309 307 303 302 302 300 304 303 303 302 300 301 304 311 307 302 301 296 297 298 293 289 291 288 291 292 292 293 293 294 293 293 294 297 299 298 298 297 297 297 298 296 295 295 296 295 295
308 312 311 309 309 309 308 308 306 304 300 302 299 302 305 306 304 301 301 309 306 306 305 301 303 298 292 290 290 291 293 294 294 294 294 294 295 294 295 293 295 296 295 295 295 296 296 296 295 296 296 297 296 296
310 311 310 310 310 308 305 305 305 300 301 302 304 305 305 305 306 305 303 308 310 312 309 305 301 294 294 296 296 297 296 295 294 294 294 294 295 295 296 295 295 295 295 295 295 294 294 295 296 296 296 296 296 297
309 309 310 311 311 307 305 305 307 302 301 302 303 302 302 302 303 304 305 309 311 310 305 302 299 298 298 299 298 298 297 297 295 294 295 296 296 296 296 296 296 296 295 295 295 295 295 295 295 295 297 297 296 298
308 310 310 310 308 306 306 306 305 305 305 305 303 301 301 303 303 302 303 310 308 305 301 303 302 303 302 301 300 300 298 297 297 297 297 296 297 298 297 297 297 297 296 296 296 296 296 297 298 297 296 297 298 299
309 311 308 309 305 306 303 307 305 306 304 305 303 300 300 300 302 303 306 303 302 303 304 302 303 303 303 301 299 298 299 298 298 298 297 299 298 298 298 299 297 297 297 298 298 298 297 297 295 295 295 295 294 296
310 309 307 306 303 299 298 308 303 305 302 303 306 300 301 302 304 308 301 303 304 305 305 305 304 303 300 300 299 297 299 299 298 298 299 299 299 299 300 301 300 300 299 300 297 296 294 293 294 294 294 295 294 294
310 307 304 303 302 297 306 304 306 303 304 303 302 302 303 303 304 300 297 299 304 303 304 305 302 299 298 298 297 297 298 298 298 298 299 299 299 299 300 301 301 301 302 300 297 294 294 295 292 293 293 294 294 293
298 298 299 291 304 302 301 301 301 301 300 303 300 300 301 304 302 300 300 301 303 302 304 305 302 299 297 297 297 298 299 298 298 298 299 299 299 297 297 296 296 298 298 297 295 295 295 295 294 294 294 294 294 294
293 299 296 301 302 301 301 299 300 301 303 303 304 307 307 301 300 300 301 303 304 305 305 304 302 299 298 298 298 298 300 299 299 299 301 300 299 299 298 296 296 296 294 296 296 296 296 296 296 297 296 296 293 294
293 299 303 303 302 303 302 303 304 301 301 302 304 304 303 300 299 302 307 308 308 309 309 307 304 302 301 300 300 300 301 301 302 302 301 302 302 300 299 297 296 296 295 295 295 296 296 296 296 297 296 296 296 296
301 302 299 301 302 303 302 302 301 298 301 306 305 301 302 302 302 307 311 311 312 311 310 309 306 304 303 303 304 305 304 302 297 295 295 294 294 294 295 296 296 292 295 296 296 296 296 296 296 296 296 295 295 296
301 304 303 301 302 302 302 302 301 303 306 308 305 304 306 310 312 312 312 312 312 312 310 308 309 308 307 307 306 305 299 297 297 296 296 295 293 295 294 295 294 295 295 295 292 294 297 295 296 296 297 296 296 296
300 300 300 303 302 301 303 306 304 308 310 310 312 309 309 311 313 316 314 313 311 310 310 311 311 308 308 309 310 303 300 300 298 298 297 296 296 296 294 294 294 294 294 295 295 295 292 294 293 295 294 295 296 297
305 303 302 303 303 306 309 311 310 310 309 310 313 310 308 308 312 315 314 313 311 310 310 311 311 309 308 306 306 306 304 304 299 300 300 300 297 296 295 295 295 294 294 294 294 294 294 294 294 294 295 296 297 297
304 303 304 302 304 309 312 310 309 308 308 308 307 309 309 308 307 310 314 313 311 311 308 310 310 312 311 311 311 311 301 309 306 302 302 301 300 299 297 295 294 294 295 296 296 296 296 296 296 297 298 298 298 298
305 306 306 305 306 307 309 308 305 304 304 304 305 306 307 307 305 310 315 315 314 312 311 311 313 310 311 313 311 309 303 308 302 296 295 294 294 294 295 294 295 296 297 297 297 297 299 299 299 299 298 298 298 298

GFSWCAN_sfc_thetae_237.txt.gz
Theta_e
315 315 315 315 316 316 316 316 316 315 315 315 314 314 314 314 313 309 307 308 308 303 304 304 302 300 298 298 295 297 298 295 292 289 289 290 290 295 293 293 293 293 293 292 295 295 293 303 308 306 310 318 317 316
315 315 315 315 315 315 316 316 316 315 315 315 314 314 313 313 313 308 305 308 309 305 304 305 308 309 307 307 301 300 299 295 293 291 292 291 289 293 293 289 299 293 299 297 298 297 301 302 301 304 310 310 312 317
315 314 315 315 315 315 315 315 316 316 315 315 314 313 313 313 312 310 306 306 307 303 304 304 304 307 307 307 308 300 302 302 299 302 297 295 289 294 290 292 294 298 303 298 301 298 298 301 302 304 305 305 310 314
314 314 314 315 315 315 315 315 315 315 315 314 314 312 312 312 312 310 306 306 306 303 299 301 308 307 309 306 306 306 306 306 306 304 298 295 291 297 294 295 295 298 302 300 298 300 300 300 301 302 304 305 306 308
314 314 314 314 314 315 315 315 315 315 315 314 313 313 312 311 310 310 307 307 307 303 297 300 306 307 307 307 306 305 307 305 303 299 297 296 298 297 297 298 296 300 297 300 297 301 301 300 301 303 303 304 307 308
313 313 314 314 314 315 315 315 315 315 315 314 313 312 311 310 309 307 305 307 308 307 302 297 305 306 306 306 305 304 304 303 302 300 298 299 301 298 295 295 297 298 300 302 302 302 302 302 301 302 302 303 306 308
313 313 314 314 314 314 315 314 314 314 313 313 311 310 310 309 307 304 304 306 307 309 303 299 300 305 304 304 304 305 303 304 302 301 299 299 300 300 297 292 296 296 298 298 299 302 299 299 299 300 302 303 304 306
312 313 313 314 314 314 314 313 313 313 313 312 310 309 309 309 308 305 310 308 308 304 304 298 299 301 304 301 300 302 302 303 303 301 301 299 299 298 295 297 299 298 299 298 298 298 298 299 300 299 301 302 301 302
312 312 313 313 313 313 313 313 313 313 312 310 310 310 308 306 303 306 311 310 307 303 298 299 297 297 303 300 299 300 301 298 302 301 301 298 298 295 297 298 299 299 299 298 298 298 298 298 298 299 300 300 300 300
312 312 312 312 313 313 312 313 313 312 311 309 308 307 305 306 313 312 305 302 302 302 303 298 302 299 301 298 297 297 298 297 296 298 300 298 297 299 301 302 303 302 301 301 297 295 297 297 298 298 299 300 300 300
312 312 312 312 312 312 312 313 312 310 309 310 307 306 309 313 307 303 300 299 299 296 299 300 301 301 302 297 297 298 296 296 292 296 296 295 297 300 304 303 304 304 303 301 300 300 299 299 298 298 299 300 300 301
312 312 312 311 312 312 312 312 312 311 312 309 308 309 308 306 303 298 297 300 298 298 301 303 304 303 302 302 298 296 295 296 291 299 296 293 299 302 303 302 303 303 302 301 302 301 300 299 300 299 300 300 300 301
312 311 311 311 311 312 312 312 311 310 310 309 306 303 302 303 293 294 294 298 298 301 304 305 303 303 301 301 299 296 293 294 299 295 294 297 301 302 304 303 302 303 303 302 302 303 302 300 300 300 301 301 301 301
311 310 310 311 311 311 311 311 311 310 308 304 302 291 298 296 298 299 301 303 306 305 305 306 305 301 303 299 300 295 299 298 293 291 292 300 303 304 304 305 302 301 302 302 303 303 303 303 303 302 302 303 302 301
310 310 310 310 311 311 311 311 311 310 307 303 302 293 299 304 305 307 310 309 310 311 307 306 304 302 302 300 301 299 295 293 295 294 299 303 305 305 304 304 304 304 304 303 304 304 304 304 304 304 305 303 303 302
310 310 310 311 311 311 310 310 310 309 305 304 302 301 305 303 303 306 309 309 314 310 307 306 302 300 298 300 297 295 293 292 297 300 303 303 304 306 305 306 306 307 306 306 306 306 306 306 305 305 306 305 304 303
310 311 312 311 311 309 310 310 308 304 303 303 301 305 304 303 303 305 307 309 315 310 303 302 298 297 302 298 296 299 297 301 303 304 304 305 306 306 307 307 308 308 307 307 308 308 307 308 307 305 304 305 306 306
311 313 311 309 310 309 310 309 307 304 301 303 301 304 305 306 305 306 309 312 313 309 305 302 308 301 296 295 298 302 303 304 306 305 305 305 307 307 307 308 308 308 308 308 308 308 307 306 304 304 306 307 306 306
311 311 310 310 311 310 306 305 306 301 303 304 305 307 306 307 309 311 311 314 316 315 309 306 302 302 303 307 307 309 308 306 306 304 305 306 307 306 306 306 306 307 306 306 305 304 305 306 306 306 305 305 304 305
309 310 310 311 312 309 306 306 307 303 302 307 307 307 309 309 311 310 310 311 312 310 306 303 305 310 309 311 311 310 309 308 305 303 304 304 305 306 306 305 304 306 305 306 305 299 305 305 306 305 305 305 305 305
308 310 310 310 309 308 306 306 305 306 307 305 308 308 308 310 309 308 310 314 310 308 308 313 310 315 314 313 312 311 310 307 306 307 306 305 306 306 306 306 307 305 304 305 306 306 300 305 307 307 306 305 306 306
309 311 308 309 306 306 304 308 306 308 306 306 306 305 306 307 309 309 312 309 309 313 314 315 314 314 315 313 313 310 310 309 308 305 302 303 306 306 306 307 306 306 306 307 307 307 307 308 306 305 305 304 300 304
310 310 308 306 303 299 298 311 304 306 303 304 307 304 306 309 311 314 308 310 313 315 315 315 314 314 313 309 308 307 308 309 308 308 308 309 309 310 309 309 309 308 308 309 309 308 308 300 300 302 303 301 302 302
310 308 304 303 302 297 306 304 307 306 305 303 303 302 305 309 311 307 304 307 312 312 314 314 312 307 308 308 308 309 309 310 309 309 309 309 309 310 310 310 310 310 311 311 310 309 308 305 299 301 302 301 301 300
299 299 300 292 305 302 301 302 302 302 300 303 302 304 306 311 307 305 306 310 311 311 313 314 313 311 309 308 308 308 308 308 308 308 309 309 310 305 305 307 308 308 309 308 308 307 307 304 302 303 302 301 301 301
293 302 296 302 302 301 303 300 301 301 304 302 305 310 311 307 303 303 307 310 312 313 313 314 314 311 308 308 308 308 309 309 309 307 310 309 309 308 308 308 307 309 306 306 306 305 305 303 302 302 302 301 295 299
295 300 304 307 305 306 304 304 305 304 303 302 305 306 305 300 302 307 310 311 314 317 318 317 316 313 313 311 310 310 311 310 310 310 310 310 311 312 310 309 308 307 306 304 305 305 303 303 303 302 302 303 302 301
302 303 299 304 303 305 303 304 303 302 305 309 309 303 302 302 303 312 315 319 318 319 319 318 317 316 314 313 313 313 312 311 310 308 304 304 305 306 307 308 307 293 304 305 304 304 304 304 303 302 301 300 301 302
300 305 304 300 302 303 303 303 304 307 311 312 306 304 306 313 316 314 317 318 320 318 318 317 317 317 316 316 315 315 315 310 308 306 307 309 308 306 303 304 304 304 304 303 292 298 302 302 302 302 301 301 302 302
301 306 303 302 301 300 306 309 308 311 314 314 316 314 314 314 316 320 319 318 317 317 319 320 320 318 316 316 318 315 314 311 312 313 311 310 309 307 304 304 304 303 304 304 303 302 292 299 297 302 301 302 303 303
306 303 302 303 303 307 311 312 312 311 313 313 316 312 311 314 317 320 320 320 320 319 318 318 319 318 318 317 317 317 316 312 310 311 310 308 307 306 304 304 304 303 303 303 303 303 302 301 302 302 303 303 304 302
304 303 303 303 306 311 312 310 309 309 311 309 310 313 313 313 310 317 324 321 318 318 314 316 319 320 322 320 319 319 304 323 317 312 307 308 308 305 304 303 303 303 303 303 303 303 303 302 302 303 303 303 303 303
306 307 306 306 307 307 310 309 308 307 309 309 310 311 311 310 309 317 326 323 322 321 320 320 319 317 317 318 318 317 307 319 310 298 297 297 297 299 303 303 303 303 303 303 304 303 303 303 303 303 303 303 302 302

GFSWCAN_sfc_thetae_240.txt.gz
Theta_e
315 316 316 316 316 316 316 316 316 316 316 316 315 314 314 314 314 313 314 318 313 308 308 308 307 305 305 304 299 302 301 301 298 293 292 293 292 296 295 298 298 296 295 294 298 296 294 309 312 307 308 320 320 320
314 315 315 315 316 316 316 316 316 316 316 316 315 314 313 313 313 312 312 317 316 310 309 313 312 313 311 309 305 306 303 302 298 292 294 296 294 295 294 292 302 296 302 302 301 301 304 304 305 306 311 316 320 319
314 314 315 315 315 316 316 316 316 316 316 316 315 314 313 313 312 310 311 315 312 309 309 309 308 313 315 314 314 303 308 307 299 302 298 298 292 295 292 296 298 301 304 302 304 301 300 302 304 305 310 317 320 320
314 314 314 315 315 315 315 316 316 316 316 316 315 314 313 312 312 310 311 314 312 309 303 306 314 311 315 313 312 311 310 311 310 304 298 298 293 298 298 299 298 300 302 301 298 300 301 301 302 304 307 314 317 317
314 314 313 314 315 315 315 315 316 316 316 316 315 313 313 312 311 312 312 313 314 308 303 307 311 311 313 312 311 310 309 309 307 302 298 296 301 299 301 301 299 304 300 300 299 304 304 302 302 305 304 308 314 315
313 313 313 313 314 315 315 315 315 316 316 316 314 313 311 311 310 307 307 314 314 313 307 304 310 309 311 311 310 309 309 309 307 305 301 304 306 303 298 298 302 303 305 307 303 308 309 304 303 305 305 306 310 312
313 313 313 313 314 314 315 315 314 315 315 314 312 311 310 310 310 305 306 310 310 316 308 304 305 310 310 310 310 309 309 307 306 304 303 304 303 303 302 300 304 303 302 305 308 306 304 306 303 305 306 306 308 308
312 313 313 313 314 314 314 313 313 313 313 313 311 310 310 309 309 306 311 309 309 307 306 301 304 305 310 306 303 310 305 307 306 304 306 303 305 303 297 301 302 301 300 301 302 303 304 304 304 304 305 305 305 305
312 312 312 313 313 313 313 313 313 313 312 312 310 310 309 308 305 308 311 311 309 304 299 304 303 302 309 308 306 305 307 301 309 303 305 304 304 299 301 304 303 301 301 299 299 300 301 301 302 303 304 304 304 304
312 312 312 313 313 313 312 313 313 312 312 310 310 309 305 307 313 312 307 306 305 306 306 303 311 304 308 308 304 300 305 302 299 303 307 302 301 305 304 307 308 306 305 304 301 300 301 301 302 302 303 304 304 304
312 312 312 313 313 312 312 312 312 311 309 314 311 307 310 314 309 306 303 301 304 301 306 307 306 306 309 303 302 304 302 305 298 301 301 301 301 303 307 308 309 308 307 305 305 304 303 303 303 303 303 304 304 305
312 312 312 312 312 312 312 312 312 314 316 312 310 310 310 307 306 302 301 303 301 300 303 308 309 310 310 311 304 304 301 303 295 306 301 298 304 307 307 307 308 308 306 304 304 304 304 304 304 304 304 304 304 305
311 311 311 311 312 312 312 312 311 311 311 311 307 304 303 305 295 297 297 300 303 308 306 310 306 308 308 308 306 303 297 299 307 300 297 300 308 309 309 308 308 307 306 304 304 305 305 304 305 305 305 306 307 307
311 311 311 311 311 312 311 311 311 311 311 305 303 291 299 299 303 305 305 309 312 309 309 310 306 302 309 305 307 298 304 304 297 294 296 303 309 310 311 310 308 306 305 304 305 306 306 306 306 307 307 308 308 308
311 310 311 311 311 311 311 311 311 312 309 304 304 296 300 306 306 306 310 312 313 315 309 307 306 305 304 303 307 304 298 295 298 298 303 307 313 313 312 310 309 308 307 306 307 307 307 307 307 307 308 309 308 308
310 310 311 312 312 311 310 311 311 311 307 304 306 305 309 304 305 306 309 310 316 315 313 312 304 302 302 305 300 298 297 295 302 306 308 312 313 314 313 312 312 310 309 308 308 308 308 308 307 307 308 309 309 309
310 312 312 311 311 310 310 312 311 306 307 304 306 309 308 306 305 306 312 313 317 313 304 306 300 300 306 301 299 306 301 306 307 309 312 314 315 315 315 314 313 310 309 309 309 309 309 310 310 309 308 309 309 310
312 313 311 309 311 310 312 313 310 306 303 307 307 305 309 308 306 307 310 316 315 314 311 303 311 303 302 299 304 310 311 312 314 313 312 314 317 316 315 314 312 310 310 310 310 310 309 309 308 308 309 310 310 310
313 312 310 310 312 312 309 307 312 304 306 312 309 311 310 311 314 314 316 316 317 321 315 308 303 304 306 311 311 312 314 314 311 310 312 316 316 315 315 313 312 310 310 310 309 307 307 310 309 309 309 309 308 309
310 310 310 311 313 311 308 307 311 305 305 311 313 312 313 313 315 316 315 315 315 314 309 306 304 311 315 317 318 316 317 317 312 308 308 310 312 313 313 310 308 311 310 310 310 305 309 309 310 310 310 309 308 307
311 310 311 312 310 314 310 308 306 309 309 308 313 312 312 315 313 313 311 315 312 311 310 314 316 315 320 321 321 321 319 317 312 311 309 308 310 310 310 310 311 309 307 307 307 307 304 308 309 310 308 306 307 308
311 311 309 309 306 308 308 310 307 311 309 311 310 311 310 310 312 313 314 310 309 313 316 317 322 320 321 322 322 320 319 317 316 310 305 307 310 309 309 310 310 308 309 309 309 308 308 310 311 312 308 307 303 305
310 310 308 308 306 301 299 312 307 309 305 308 309 306 309 312 315 316 309 310 314 321 321 321 322 324 322 317 316 316 317 316 312 312 311 311 312 311 311 311 312 311 310 311 313 312 311 306 309 309 308 306 305 304
310 309 306 304 303 298 307 305 308 306 308 305 305 303 308 313 315 312 310 313 317 321 319 321 320 316 314 315 311 313 314 315 313 313 313 311 309 311 311 311 311 313 314 314 313 313 314 314 307 308 307 305 304 303
299 300 301 293 306 303 302 303 304 304 302 306 304 304 308 316 310 309 310 316 317 317 319 320 319 315 311 311 311 311 317 312 310 310 313 314 313 315 313 313 314 314 315 313 310 310 311 312 312 309 307 305 304 303
295 304 298 305 304 304 305 302 303 304 305 304 305 311 316 311 305 304 311 316 317 318 318 319 318 316 312 313 312 311 312 314 314 312 316 315 314 313 310 310 310 313 313 311 309 307 307 309 309 306 305 303 295 302
297 303 307 313 308 307 306 310 310 307 305 303 308 307 309 301 303 310 316 318 318 321 324 323 322 318 314 314 315 316 317 316 315 316 318 319 318 317 314 310 309 310 312 309 308 308 308 307 306 305 303 305 305 304
306 307 302 307 307 308 304 306 305 303 305 311 310 304 303 304 305 313 318 318 321 323 325 324 323 320 318 317 317 317 317 318 318 318 317 316 314 314 314 315 311 294 309 309 309 309 308 307 306 305 305 305 306 306
304 308 307 303 304 305 306 305 306 309 313 313 308 307 309 316 318 317 317 321 323 322 321 321 320 321 320 320 320 319 319 319 316 312 311 310 311 311 311 310 308 310 308 306 290 299 304 304 304 304 304 305 306 306
304 309 305 303 301 301 306 310 310 315 318 316 317 317 317 317 320 320 321 319 318 319 321 320 319 319 317 318 318 319 322 321 320 317 313 313 314 313 311 309 308 308 308 308 306 305 292 300 300 305 305 307 307 306
311 308 304 305 305 307 310 313 316 315 315 314 316 313 313 316 320 321 321 322 322 322 321 319 320 321 321 321 320 320 319 324 322 322 321 321 314 312 311 310 308 308 307 308 308 307 306 305 306 306 306 306 306 304
305 304 303 302 306 312 313 312 310 308 309 311 312 315 315 315 313 319 324 324 322 321 316 319 322 322 325 327 327 325 305 323 323 323 320 316 314 312 311 309 308 307 308 307 307 306 306 305 306 306 306 306 306 306
305 306 306 306 306 307 312 311 308 308 310 312 313 314 315 314 312 321 329 329 327 326 328 327 325 324 323 324 326 323 310 325 310 298 296 298 299 303 309 308 307 307 307 307 307 308 306 306 306 306 306 306 306 305

GFSWCAN_sfc_thetae_246.txt.gz
Theta_e
316 316 316 316 316 317 317 317 318 318 318 318 318 318 317 316 315 314 319 325 316 310 312 313 313 308 307 306 302 306 304 306 303 297 296 296 294 296 296 298 295 293 291 293 294 293 291 309 309 300 307 310 320 323
316 316 316 316 316 316 317 316 316 317 318 318 319 318 316 315 315 314 317 323 322 314 311 317 317 317 314 312 307 307 305 306 306 299 300 299 295 297 296 291 301 294 298 297 300 299 309 309 307 309 312 314 321 321
315 315 316 316 316 315 315 316 316 317 317 318 318 319 317 316 314 312 317 318 319 313 314 315 313 318 319 315 315 304 308 311 309 309 304 301 295 300 294 295 296 300 301 298 304 304 305 307 309 313 317 319 321 322
314 314 315 315 315 315 315 315 316 316 317 317 318 318 317 315 313 312 316 321 314 313 307 308 318 314 317 315 313 313 311 313 312 309 305 301 297 305 299 300 300 302 302 298 303 305 306 307 306 310 316 320 321 320
313 314 314 314 315 315 315 315 315 316 316 317 317 317 316 314 312 311 317 315 316 310 306 310 315 315 316 314 312 312 311 310 308 307 304 301 305 304 304 303 299 304 304 303 301 308 307 307 306 310 316 317 319 318
312 313 313 313 314 314 315 314 314 315 316 316 316 316 314 312 311 311 307 315 318 316 308 304 315 314 314 313 312 311 311 308 309 308 307 307 310 306 300 292 303 309 310 311 307 311 309 309 307 310 314 317 318 318
311 312 313 313 313 314 314 314 314 314 314 314 314 314 312 310 310 308 307 309 310 317 308 305 307 312 314 312 312 311 311 309 307 305 304 304 305 305 300 293 296 306 310 310 312 311 306 307 305 310 313 313 314 315
310 311 312 313 313 314 314 313 314 314 314 314 313 311 310 310 309 308 314 312 310 312 312 304 306 306 313 308 307 313 307 308 308 306 307 305 306 306 299 303 307 308 310 310 311 311 311 312 311 310 311 311 308 308
310 310 312 313 314 314 313 314 314 313 313 312 310 310 311 308 307 311 312 312 315 311 304 306 304 303 314 309 310 308 308 303 310 303 304 306 304 300 304 307 308 308 307 307 308 309 310 310 310 309 309 308 307 307
310 310 311 312 313 313 313 313 313 313 311 311 311 310 306 309 313 312 311 309 309 310 309 305 310 305 309 308 306 306 307 302 300 305 307 302 302 306 306 311 310 307 307 307 304 303 305 306 307 308 308 308 308 307
310 310 311 312 313 313 313 313 313 310 310 310 312 308 311 313 312 310 305 303 305 302 308 309 309 305 314 305 305 308 303 305 299 303 300 302 301 305 308 309 312 310 309 308 308 307 307 307 306 306 306 307 307 308
310 310 311 312 313 313 313 312 311 312 318 316 314 314 311 306 308 304 303 307 306 304 310 308 310 310 311 314 306 307 302 304 297 307 300 297 304 309 309 308 309 310 309 308 308 307 307 307 308 307 307 307 308 309
309 310 311 312 312 313 313 312 311 312 312 315 311 305 304 304 296 299 298 303 304 311 312 311 311 311 313 311 306 305 300 299 308 299 297 302 309 310 311 310 309 310 309 308 307 307 308 307 308 308 307 308 308 308
309 310 311 311 312 312 312 311 311 312 315 312 305 291 301 301 305 306 308 310 314 312 314 314 313 310 311 306 306 301 305 303 297 293 295 297 311 312 313 312 310 308 307 306 306 307 307 307 307 308 308 310 309 308
310 310 311 312 312 312 312 311 311 314 317 309 306 295 305 311 314 312 313 313 316 318 313 311 312 311 311 306 309 305 300 297 300 298 305 307 318 316 314 313 312 309 308 307 307 307 307 308 308 309 310 310 310 310
310 310 312 312 312 312 310 311 312 314 311 309 308 307 314 312 311 311 312 311 317 319 315 316 308 304 302 306 302 301 298 297 302 307 309 317 320 319 316 314 314 313 311 309 309 309 310 309 309 310 311 311 310 310
310 312 312 311 311 310 311 314 312 309 307 308 309 314 314 314 312 312 313 316 320 318 311 311 304 302 308 303 301 306 302 307 311 312 316 322 320 319 318 316 315 314 313 312 311 311 311 312 312 310 309 311 310 312
313 313 311 310 311 311 312 312 313 312 307 312 309 315 316 315 315 315 316 317 316 316 316 309 313 307 302 300 302 310 312 317 316 315 317 321 321 320 317 316 316 315 313 312 312 312 312 310 309 308 313 315 315 314
313 311 310 311 313 313 309 313 314 308 310 313 315 318 317 316 318 318 317 318 322 324 320 314 308 306 307 309 307 313 312 313 313 316 318 320 320 317 316 316 316 314 313 312 312 310 310 312 310 310 309 310 308 309
310 310 311 312 313 313 311 313 319 312 308 314 318 318 316 316 317 316 315 317 316 318 312 310 309 312 316 317 317 318 318 318 314 312 313 315 316 316 314 314 312 317 312 314 312 307 310 310 310 312 311 311 310 308
311 311 312 314 313 314 314 314 313 314 313 312 316 316 315 319 316 313 313 316 312 311 310 314 316 318 325 324 323 324 322 320 316 314 317 312 314 313 312 312 312 311 310 310 310 309 305 309 310 310 309 309 311 310
310 312 312 312 309 312 312 318 314 318 314 314 315 316 312 312 314 315 316 312 311 314 315 318 321 320 322 323 325 327 325 322 320 314 308 309 311 311 311 311 310 310 310 310 311 311 311 312 313 312 313 311 308 311
311 312 311 310 307 302 301 317 311 313 308 311 313 310 310 314 319 322 313 314 315 318 322 325 325 327 325 326 325 320 319 318 314 313 313 312 313 314 313 313 313 311 311 312 314 313 315 309 311 312 313 313 312 311
311 310 306 305 306 302 312 309 313 311 312 310 309 307 310 315 320 315 310 316 318 322 321 325 325 322 324 323 316 316 316 317 315 313 314 313 311 312 314 314 314 315 314 315 315 315 315 314 308 311 311 311 311 310
299 300 302 296 310 307 304 306 308 309 306 308 306 308 313 319 311 310 310 311 313 319 321 324 322 320 315 314 315 314 319 315 313 312 314 315 314 313 314 314 314 316 317 315 312 309 309 309 309 308 309 309 309 309
294 307 302 307 308 307 307 303 306 306 306 306 308 314 317 313 307 305 311 314 318 319 320 319 319 316 315 315 313 312 313 316 316 314 316 316 315 312 311 310 310 311 313 312 309 308 307 307 308 308 308 306 298 305
298 305 311 315 312 311 307 309 311 310 307 306 311 310 311 305 305 312 315 318 319 321 322 322 320 318 315 315 317 317 317 318 319 317 319 319 317 317 314 311 311 312 314 311 308 307 306 306 306 306 306 307 307 307
309 309 304 308 308 310 306 306 306 306 307 310 310 305 306 307 310 319 320 324 325 324 324 325 323 322 318 318 317 317 318 319 319 319 320 319 320 318 318 316 312 299 310 307 307 308 307 307 307 306 306 306 307 308
309 311 310 306 307 306 306 306 307 309 312 312 308 310 311 317 321 321 323 325 326 324 322 321 320 321 320 319 319 319 319 319 317 315 314 315 314 317 319 316 314 314 312 306 292 300 304 305 307 308 308 308 309 310
309 313 308 306 303 303 308 311 311 314 315 314 316 315 315 318 320 325 322 321 320 320 321 321 318 318 316 316 317 319 319 320 318 318 316 312 315 321 319 315 315 314 312 309 307 306 296 302 304 306 306 308 309 308
313 311 308 308 305 309 310 314 315 317 314 313 315 313 313 316 321 324 323 323 322 321 321 318 318 321 320 318 316 318 314 323 319 320 322 320 319 320 317 316 315 313 309 309 308 308 308 308 309 309 308 308 308 306
311 307 306 304 307 314 316 313 313 313 313 311 311 314 314 315 312 319 324 322 321 320 317 320 318 322 324 323 325 322 309 325 325 324 324 325 320 318 317 316 313 310 310 310 309 309 309 309 308 308 308 308 308 308
311 310 309 308 310 311 314 314 313 313 312 311 311 312 314 312 311 320 324 323 323 322 319 321 322 325 325 326 328 324 314 314 300 294 295 294 294 303 314 312 310 310 310 310 310 310 309 309 308 308 308 308 308 307

GFSWCAN_sfc_thetae_249.txt.gz
Theta_e
316 316 316 316 316 316 316 316 317 317 318 319 320 320 319 318 316 313 316 324 317 309 309 311 312 308 306 303 299 304 301 303 299 294 293 292 291 293 291 293 292 290 290 288 290 287 286 306 309 303 307 311 318 318
315 316 316 317 317 317 316 315 316 316 317 318 320 320 320 318 316 314 315 322 321 314 311 317 316 317 315 311 305 303 303 304 303 296 295 295 292 294 292 287 298 290 294 294 295 296 306 308 306 306 309 315 316 316
315 315 315 316 316 316 316 316 315 316 317 318 319 320 320 318 315 313 314 317 317 312 311 312 312 318 319 315 312 302 305 310 306 305 299 297 292 295 290 292 294 298 301 296 293 301 303 306 310 312 314 315 317 320
314 314 314 315 315 315 316 316 316 315 316 317 318 318 319 317 315 313 311 317 315 310 304 308 318 314 317 313 312 310 309 312 310 306 301 299 294 299 296 296 296 300 299 296 295 298 301 307 308 309 314 318 318 319
313 313 313 314 314 315 315 316 315 315 315 316 317 317 317 316 313 312 313 314 314 309 303 306 313 316 314 312 311 311 307 308 306 303 301 299 302 301 301 300 296 302 300 296 294 300 300 304 308 310 312 316 317 317
311 312 312 313 313 314 314 315 315 315 315 316 316 316 316 313 311 311 306 313 312 315 307 302 313 315 315 312 311 309 308 306 304 305 303 306 306 301 297 293 299 303 305 308 304 304 308 308 309 311 313 315 317 316
310 310 311 312 313 313 314 314 314 314 315 314 314 314 313 311 311 307 307 310 309 312 307 302 307 313 315 311 309 308 310 307 305 303 301 303 304 304 299 293 300 304 305 309 309 308 305 307 307 311 314 313 314 312
310 310 310 311 313 313 313 314 313 314 314 314 313 311 310 310 309 308 313 312 310 307 310 302 305 307 314 307 305 311 307 306 306 303 305 302 302 302 297 301 303 306 309 309 309 310 309 308 310 311 311 309 307 307
309 310 310 311 312 313 314 313 313 313 313 312 311 310 311 310 307 312 313 313 316 310 303 305 303 301 313 309 310 308 307 300 308 303 301 304 300 295 301 302 304 305 304 305 307 309 309 308 307 308 308 307 305 305
309 310 310 311 312 313 313 313 314 313 311 310 310 307 307 310 314 311 310 308 308 309 307 302 309 304 309 308 306 306 306 302 298 303 306 302 300 306 307 308 308 306 304 305 302 301 305 305 307 306 307 307 305 305
309 309 310 311 312 313 313 313 313 309 310 308 309 308 311 314 310 309 305 303 304 301 306 306 308 304 311 303 304 308 302 303 296 300 300 297 295 302 310 308 306 306 306 305 305 304 305 305 304 303 304 305 306 306
310 309 310 311 312 313 314 313 310 310 313 313 313 313 312 306 304 303 302 306 304 303 308 308 309 310 311 315 307 307 302 303 295 306 298 291 300 307 306 308 308 308 308 308 308 305 305 305 305 305 304 305 305 306
309 309 310 310 311 313 313 312 310 313 311 315 311 305 303 303 294 297 297 302 302 310 312 311 309 312 308 312 306 305 300 299 307 297 294 295 303 308 308 307 308 309 308 308 308 307 307 306 307 305 305 305 306 306
309 309 310 310 311 312 312 311 311 312 313 310 305 291 300 300 302 305 308 309 315 312 311 313 312 310 311 307 306 300 304 305 297 291 292 302 304 307 311 310 308 306 306 305 305 306 306 306 305 307 306 306 305 305
309 309 310 311 312 312 312 311 312 313 313 309 306 295 301 308 313 314 315 313 316 313 314 310 312 309 309 306 307 305 301 297 299 297 301 303 308 308 312 311 309 307 306 305 305 305 305 306 305 305 306 306 305 305
309 310 310 312 312 312 310 311 312 313 311 310 308 305 310 310 311 313 311 311 319 318 317 315 309 304 304 305 302 300 299 297 302 306 308 307 311 312 314 313 313 310 307 306 307 307 307 306 306 306 310 309 308 308
310 311 311 311 311 310 311 313 311 308 308 307 306 312 310 312 313 314 315 316 321 317 310 311 304 302 307 302 301 306 301 305 308 311 315 315 314 314 316 315 313 314 311 309 309 308 308 310 310 309 307 307 307 308
310 313 311 310 311 311 311 312 311 311 306 309 307 310 316 317 314 315 317 319 317 316 314 309 313 306 303 300 304 307 308 315 316 316 317 318 317 317 316 315 314 314 312 310 311 311 310 308 308 307 307 310 309 308
313 311 310 311 313 312 308 309 311 307 309 311 313 314 319 315 319 318 317 319 320 322 317 313 308 305 307 309 311 313 315 313 312 316 317 320 318 315 315 316 315 313 311 310 310 308 309 310 307 307 308 308 307 307
310 310 311 313 314 311 309 310 317 311 308 315 317 317 318 317 316 317 317 318 317 317 312 309 309 312 314 316 319 319 321 321 317 314 313 315 317 315 313 314 313 313 311 312 311 307 308 310 309 309 309 308 307 307
310 311 312 314 312 312 311 312 311 312 312 311 315 316 317 321 317 315 313 318 314 311 310 313 315 314 320 323 326 327 326 321 318 315 314 312 315 314 312 312 314 312 311 310 309 308 304 307 309 310 310 308 309 309
310 313 311 311 308 311 309 315 314 318 313 313 314 315 313 313 315 315 318 312 311 312 314 315 320 323 323 324 324 327 324 322 321 312 310 310 312 312 311 312 311 308 309 309 310 309 309 310 309 308 310 309 308 308
311 312 310 310 306 301 301 316 310 312 307 311 313 309 310 314 317 321 313 314 314 319 319 323 326 328 325 328 324 321 320 318 318 317 313 313 315 315 315 313 312 311 311 311 313 311 312 307 308 308 310 310 310 309
312 309 305 304 305 300 310 309 311 309 311 309 308 306 311 315 320 314 310 315 316 316 322 325 323 322 324 325 319 319 318 319 319 315 315 314 312 313 314 314 314 313 315 313 313 314 314 314 309 311 311 310 310 309
299 299 301 293 308 306 304 305 306 306 304 307 306 307 311 318 310 309 308 310 312 314 315 322 324 323 320 319 317 317 321 317 315 313 315 316 315 315 313 314 315 313 314 312 309 307 308 308 306 307 308 307 307 306
293 304 298 305 306 305 305 304 305 305 306 305 308 313 317 313 307 306 311 313 312 314 317 319 320 320 319 318 313 313 314 317 318 315 317 317 314 311 311 310 309 310 311 308 306 306 306 306 306 306 305 305 299 304
296 304 309 314 312 310 308 310 310 308 306 305 310 309 310 304 305 310 318 320 316 320 325 324 323 321 317 317 319 317 317 319 320 321 321 319 317 317 315 312 311 311 308 306 306 306 305 306 306 306 306 306 307 306
307 310 306 309 308 311 306 307 305 307 307 310 311 306 305 306 309 317 320 323 324 327 326 324 327 318 319 321 317 318 319 319 321 319 320 320 320 320 316 313 312 302 308 307 306 305 305 305 305 306 306 306 307 309
308 311 310 306 307 307 306 306 306 309 313 310 307 308 310 316 321 320 322 323 324 326 325 323 322 324 321 318 321 320 320 320 318 317 317 314 315 318 314 311 307 308 306 304 295 301 307 304 306 305 306 306 307 309
308 312 307 306 305 303 307 311 310 314 315 315 315 315 314 318 322 326 324 323 323 321 323 321 321 318 318 318 318 319 321 322 320 318 315 316 314 317 319 319 313 310 309 305 304 304 297 300 301 303 303 307 307 307
312 312 309 307 306 308 311 313 315 316 315 314 315 312 312 317 320 322 325 325 322 321 320 317 318 319 319 317 316 314 314 319 321 327 322 322 323 321 322 317 312 311 309 309 308 307 308 308 308 307 307 307 307 305
310 308 306 305 307 312 315 313 312 311 312 311 311 313 314 314 313 320 324 324 322 320 316 317 320 321 323 323 322 322 304 322 324 328 328 323 323 322 316 311 310 310 310 309 310 310 310 309 307 307 306 307 306 306
310 310 310 309 308 309 313 312 311 311 312 310 310 312 313 313 313 321 325 327 323 321 321 323 324 325 328 326 327 317 305 308 294 292 296 298 297 307 310 309 310 311 313 311 310 309 309 309 308 308 307 307 306 306